Weather History for Owosso, MI

Change the Weather History Date:

Wednesday, March 6, 2013

  Actual Average (KFNT) Record (KFNT)
Temperature  
Mean Temperature 32 °F 30 °F  
Max Temperature 36 °F 39 °F 67 °F (2009)
Min Temperature 28 °F 21 °F -7 °F (1960)
Degree Days  
Heating Degree Days 33 35  
Month to date heating degree days 213  
Since 1 July heating degree days 5301  
Cooling Degree Days 0 0  
Month to date cooling degree days 0  
Year to date cooling degree days 0  
Moisture  
Dew Point 26 °F    
Average Humidity 80    
Maximum Humidity 92    
Minimum Humidity 69    
Precipitation  
Precipitation 0.00 in 0.06 in 0.77 in (1956)
Month to date precipitation 0.34  
Year to date precipitation 3.45  
Snow  
Snow 0.00 in 0.30 in 4.50 in (1971)
Month to date snowfall 1.7  
Since 1 July snowfall 40.3  
Snow Depth -    
Sea Level Pressure  
Sea Level Pressure 30.08 in    
Wind  
Wind Speed 7 mph (NNE)    
Max Wind Speed 12 mph    
Max Gust Speed 16 mph    
Visibility 10 miles    
Events      
T = Trace of Precipitation, MM = Missing Value Source: NWS Daily Summary

Daily Weather History Graph

Daily Weather History Graph

Search for Another Location

Airport:

Trip Planner

Search our weather history database for the weather conditions in past years. The results will help you decide how hot, cold, wet, or windy it might be!

Date:

Astronomy

Mar. 06, 2013 Rise Set
Actual Time 7:03 AM EST 6:32 PM EST
Civil Twilight 6:35 AM EST 7:00 PM EST
Nautical Twilight 6:02 AM EST 7:33 PM EST
Astronomical Twilight 5:29 AM EST 8:06 PM EST
Moon 3:18 AM EST (3/6) 1:06 PM EST (3/6)
Length of Visible Light 12h 25m
Length of Day
11h 28m
Waning Crescent, 30% of the Moon is Illuminated
Mar 6
Waning Crescent
Mar 11
New
Mar 19
First Quarter
Mar 27
Full
Apr 3
Last Quarter

Hourly Weather History & Observations

Time (EST) Temp. Windchill Dew Point Humidity Pressure Visibility Wind Dir Wind Speed Gust Speed Precip Events Conditions
12:14 AM 28.9 °F 19.8 °F 24.8 °F 84% 29.90 in 10.0 mi North 10.4 mph - N/A   Overcast
12:35 AM 28.9 °F 21.1 °F 24.8 °F 84% 29.90 in 10.0 mi North 8.1 mph - N/A   Mostly Cloudy
12:55 AM 28.4 °F 20.4 °F 24.6 °F 86% 29.91 in 10.0 mi North 8.1 mph - N/A   Mostly Cloudy
1:14 AM 28.8 °F 20.2 °F 24.6 °F 84% 29.91 in 10.0 mi North 9.2 mph - N/A   Overcast
1:35 AM 29.3 °F 20.8 °F 24.4 °F 82% 29.91 in 10.0 mi NNE 9.2 mph - N/A   Overcast
1:55 AM 29.3 °F 19.6 °F 23.9 °F 80% 29.91 in 10.0 mi NNE 11.5 mph 16.1 mph N/A   Overcast
2:14 AM 29.5 °F 21.1 °F 23.4 °F 78% 29.92 in 10.0 mi NNE 9.2 mph - N/A   Overcast
2:35 AM 29.3 °F 21.5 °F 23.0 °F 77% 29.92 in 10.0 mi NNE 8.1 mph - N/A   Overcast
2:55 AM 29.3 °F 20.8 °F 23.0 °F 77% 29.92 in 10.0 mi NNE 9.2 mph - N/A   Overcast
3:15 AM 29.3 °F 21.5 °F 23.0 °F 77% 29.93 in 10.0 mi NE 8.1 mph - N/A   Overcast
3:35 AM 29.3 °F 20.2 °F 23.4 °F 78% 29.92 in 10.0 mi NE 10.4 mph 16.1 mph N/A   Overcast
3:54 AM 29.3 °F 21.5 °F 23.5 °F 79% 29.93 in 10.0 mi North 8.1 mph - N/A   Overcast
4:15 AM 29.3 °F 22.3 °F 23.7 °F 80% 29.94 in 10.0 mi North 6.9 mph - N/A   Overcast
4:34 AM 29.3 °F 22.3 °F 23.7 °F 80% 29.95 in 10.0 mi North 6.9 mph - N/A   Overcast
4:55 AM 29.3 °F 20.8 °F 23.7 °F 80% 29.96 in 10.0 mi North 9.2 mph - N/A   Overcast
5:15 AM 28.9 °F 20.4 °F 23.5 °F 80% 29.97 in 10.0 mi North 9.2 mph - N/A   Overcast
5:34 AM 28.8 °F 20.2 °F 23.4 °F 80% 29.98 in 10.0 mi North 9.2 mph - N/A   Overcast
5:55 AM 28.4 °F 19.7 °F 23.5 °F 82% 29.99 in 10.0 mi North 9.2 mph - N/A   Overcast
6:15 AM 28.4 °F 20.4 °F 23.7 °F 83% 29.99 in 10.0 mi North 8.1 mph - N/A   Overcast
6:34 AM 28.4 °F 20.4 °F 23.9 °F 83% 30.00 in 10.0 mi North 8.1 mph - N/A   Overcast
6:55 AM 28.4 °F 21.2 °F 23.9 °F 83% 30.02 in 10.0 mi North 6.9 mph - N/A   Overcast
7:15 AM 28.8 °F 20.9 °F 24.3 °F 83% 30.03 in 10.0 mi North 8.1 mph - N/A   Overcast
7:34 AM 28.9 °F 21.1 °F 24.3 °F 83% 30.04 in 10.0 mi North 8.1 mph - N/A   Overcast
7:55 AM 28.9 °F 21.9 °F 24.3 °F 83% 30.05 in 10.0 mi North 6.9 mph - N/A   Overcast
8:15 AM 29.3 °F 21.5 °F 24.8 °F 83% 30.07 in 10.0 mi North 8.1 mph - N/A   Overcast
8:35 AM 29.3 °F 20.8 °F 24.8 °F 83% 30.08 in 10.0 mi North 9.2 mph - N/A   Overcast
8:55 AM 29.8 °F 23.9 °F 25.3 °F 83% 30.09 in 10.0 mi North 5.8 mph - N/A   Overcast
9:14 AM 30.2 °F 24.3 °F 25.5 °F 83% 30.09 in 10.0 mi North 5.8 mph - N/A   Overcast
9:35 AM 30.9 °F 24.3 °F 25.5 °F 80% 30.10 in 10.0 mi NE 6.9 mph - N/A   Overcast
9:55 AM 30.9 °F 24.3 °F 25.2 °F 79% 30.11 in 10.0 mi NE 6.9 mph - N/A   Overcast
10:14 AM 31.1 °F 23.7 °F 25.3 °F 79% 30.11 in 10.0 mi NE 8.1 mph - N/A   Overcast
10:35 AM 31.8 °F 24.6 °F 25.2 °F 76% 30.11 in 10.0 mi ENE 8.1 mph - N/A   Overcast
10:54 AM 32.0 °F 24.2 °F 25.0 °F 75% 30.10 in 10.0 mi ENE 9.2 mph - N/A   Overcast
11:15 AM 32.0 °F 24.8 °F 25.0 °F 75% 30.11 in 10.0 mi ENE 8.1 mph - N/A   Overcast
11:35 AM 32.0 °F 25.6 °F 25.3 °F 76% 30.11 in 10.0 mi NNE 6.9 mph - N/A   Overcast
11:54 AM 32.2 °F 28.9 °F 25.3 °F 76% 30.12 in 10.0 mi NNE 3.5 mph - N/A   Overcast
12:15 PM 33.1 °F 26.9 °F 25.9 °F 75% 30.14 in 10.0 mi NNW 6.9 mph - N/A   Overcast
12:35 PM 32.9 °F 29.8 °F 25.7 °F 75% 30.14 in 10.0 mi North 3.5 mph - N/A   Overcast
12:54 PM 33.3 °F 28.9 °F 25.7 °F 74% 30.14 in 10.0 mi NNE 4.6 mph - N/A   Overcast
1:15 PM 33.8 °F 27.7 °F 26.2 °F 74% 30.14 in 10.0 mi NNE 6.9 mph - N/A   Overcast
1:35 PM 34.0 °F 28.8 °F 26.6 °F 74% 30.14 in 10.0 mi NNE 5.8 mph - N/A   Overcast
1:55 PM 34.2 °F 28.2 °F 26.8 °F 74% 30.13 in 10.0 mi North 6.9 mph - N/A   Overcast
2:15 PM 34.3 °F 28.4 °F 26.8 °F 74% 30.13 in 10.0 mi North 6.9 mph - N/A   Overcast
2:34 PM 34.7 °F 31.8 °F 26.8 °F 73% 30.13 in 10.0 mi NNE 3.5 mph - N/A   Overcast
2:55 PM 34.7 °F 29.6 °F 26.8 °F 73% 30.13 in 10.0 mi NE 5.8 mph - N/A   Overcast
3:14 PM 35.1 °F - 26.8 °F 72% 30.13 in 10.0 mi Calm Calm - N/A   Mostly Cloudy
3:35 PM 35.4 °F 32.6 °F 27.1 °F 72% 30.14 in 10.0 mi NNW 3.5 mph - N/A   Overcast
4:14 PM 36.0 °F 33.3 °F 27.5 °F 71% 30.15 in 10.0 mi West 3.5 mph - N/A   Overcast
4:35 PM 36.5 °F - 27.3 °F 69% 30.15 in 10.0 mi Calm Calm - N/A   Overcast
4:55 PM 35.8 °F - 26.8 °F 70% 30.16 in 10.0 mi Calm Calm - N/A   Overcast
5:15 PM 35.2 °F 31.2 °F 27.5 °F 73% 30.16 in 10.0 mi North 4.6 mph - N/A   Overcast
5:35 PM 35.2 °F 30.3 °F 27.9 °F 74% 30.16 in 10.0 mi North 5.8 mph - N/A   Overcast
5:54 PM 35.1 °F 32.2 °F 27.5 °F 74% 30.16 in 10.0 mi North 3.5 mph - N/A   Scattered Clouds
6:15 PM 34.9 °F - 27.5 °F 74% 30.17 in 10.0 mi Calm Calm - N/A   Clear
6:35 PM 34.7 °F 31.8 °F 27.7 °F 76% 30.18 in 10.0 mi NW 3.5 mph - N/A   Scattered Clouds
6:54 PM 34.5 °F - 28.0 °F 77% 30.18 in 10.0 mi Calm Calm - N/A   Mostly Cloudy
7:15 PM 34.3 °F - 28.0 °F 78% 30.18 in 10.0 mi Calm Calm - N/A   Overcast
7:35 PM 32.9 °F - 27.3 °F 80% 30.18 in 10.0 mi Calm Calm - N/A   Mostly Cloudy
7:54 PM 32.0 °F - 27.0 °F 82% 30.18 in 10.0 mi Calm Calm - N/A   Scattered Clouds
8:15 PM 31.1 °F - 27.1 °F 85% 30.18 in 10.0 mi Calm Calm - N/A   Scattered Clouds
8:35 PM 30.2 °F - 27.1 °F 88% 30.18 in 10.0 mi Calm Calm - N/A   Mostly Cloudy
8:54 PM 31.1 °F - 28.2 °F 89% 30.18 in 7.0 mi Calm Calm - N/A   Overcast
9:34 PM 30.0 °F - 26.4 °F 86% 30.20 in 7.0 mi Calm Calm - N/A   Scattered Clouds
9:55 PM 29.5 °F - 26.8 °F 90% 30.20 in 7.0 mi Calm Calm - N/A   Clear
10:15 PM 28.4 °F - 26.2 °F 92% 30.20 in 5.0 mi Calm Calm - N/A   Scattered Clouds
10:34 PM 29.5 °F - 27.3 °F 92% 30.21 in 5.0 mi Calm Calm - N/A   Overcast
10:55 PM 29.1 °F - 27.0 °F 92% 30.20 in 7.0 mi Calm Calm - N/A   Overcast
11:15 PM 29.3 °F - 27.3 °F 92% 30.21 in 7.0 mi Calm Calm - N/A   Overcast
11:35 PM 29.7 °F - 27.5 °F 92% 30.20 in 7.0 mi Calm Calm - N/A   Overcast
11:55 PM 30.2 °F - 28.2 °F 92% 30.20 in 5.0 mi Calm Calm - N/A   Overcast